Regional Weather Roundup
Issued by NWS Jackson, KY

Home | Current Version | Previous Version | Text Only | Print | Product List | Glossary Off
Versions: 1 2 3 4 5 6 7 8 9 10 11 12 13 14 15 16 17 18 19 20 21 22 23 24 25 26 27 28 29 30 31 32 33 34 35 36 37 38 39 40 41 42 43 44 45 46 47 48 49

000
ASUS43 KJKL 280110
RWRJKL

EAST KENTUCKY HOURLY WEATHER ROUNDUP
NATIONAL WEATHER SERVICE JACKSON KY
900 PM EDT THU AUG 27 2015

NOTE: "FAIR" INDICATES FEW OR NO CLOUDS BELOW 12,000 FEET WITH
NO SIGNIFICANT WEATHER AND/OR OBSTRUCTIONS TO VISIBILITY.

* THESE REPORTS ARE NOT UNDER NWS QUALITY CONTROL AND MAY NOT
  REPORT WEATHER SUCH AS PRECIPITATION AND FOG.

KYZ079-080-083-085-087-088-110-112-115-119-120-280200
...EASTERN KENTUCKY...

CITY           SKY/WX    TMP DP  RH WIND       PRES   REMARKS
JACKSON        CLEAR     65  55  70 CALM      30.16R
LONDON         CLEAR     69  54  58 NE5       30.14R
SOMERSET*      CLEAR     68  55  64 NE5       30.14R
MONTICELLO*    CLEAR     65  59  81 CALM      30.15R
MIDDLESBORO*   CLEAR     69  63  80 CALM      30.13R
HAZARD APT*    CLEAR     66  57  72 CALM      30.16R
PIKEVILLE APT* CLEAR     66  57  72 N3        30.16R
BIG SANDY*     CLEAR     67  57  71 CALM      30.16R
MOREHEAD APT*  CLEAR     66  55  68 CALM      30.17S
$$

KYZ035-036-041-042-044-050-067-078-099-280200
...CENTRAL KENTUCKY...

CITY           SKY/WX    TMP DP  RH WIND       PRES   REMARKS
MT STERLING*   CLEAR     64  57  77 CALM      30.17R
FLEMING/MASON* MOCLDY    66  57  72 NE3       30.17R
DANVILLE*      CLEAR     63  55  77 NE3       30.16R
RICHMOND*      CLEAR     66  54  63 NE3       30.14R
LEXINGTON      CLEAR     66  55  67 NE6       30.15S
FRANKFORT      CLEAR     67  56  67 E5        30.13S
$$

KYZ091>093-OHZ055-061-077-WVZ005-015-034-035-042-280200
...SOUTHERN OHIO/WEST VIRGINIA...

CITY           SKY/WX    TMP DP  RH WIND       PRES   REMARKS
COVINGTON      PTCLDY    69  55  60 CALM      30.15R
COLUMBUS       PTCLDY    68  54  60 CALM      30.14R
DAYTON         PTCLDY    67  57  70 N6        30.17R
WILMINGTON     CLEAR     63  57  81 CALM      30.16R
HUNTINGTON     CLEAR     67  55  65 N3        30.14R
CHARLESTON     CLEAR     65  58  78 CALM      30.14R
PINEVILLE*     CLEAR     62  61  99 MISG      30.21R
BECKLEY        CLEAR     65  55  70 N7        30.19R
BLUEFIELD      MOCLDY    70  52  52 NW3       30.20R
$$

VAZ002-007-008-TNZ017-027-036-066-071-280200
...SOUTHWEST VIRGINIA/EAST TENNESSEE...

CITY           SKY/WX    TMP DP  RH WIND       PRES   REMARKS
WISE*          CLEAR     64  54  68 N5        30.21R
JONESVILLE*      N/A     70  54  56 CALM      30.15R
ABINGDON*      CLEAR     71  57  60 E3        30.15R
BRISTOL        MOCLDY    71  60  68 N3        30.11R
KNOXVILLE      PTCLDY    74  60  61 N5        30.07R
OAK RIDGE      PTCLDY    74  61  63 CALM      30.10R
CROSSVILLE     CLEAR     70  58  65 N7        30.14R
NASHVILLE      PTCLDY    73  54  51 NE8       30.08S
$$

...KEY TO REMARKS...
VSB - VISIBILITY IN MILES
WCI - WIND CHILL INDEX
HX  - HEAT INDEX

$$


USA.gov is the U.S. government's official web portal to all federal, state and local government web resources and services.